www.pogodaiklimat.ru

Погода и климат >> Архив погоды >> Россия >> Бурятия >> Улан-Удэ


АРХИВ ПОГОДЫ в Улан-Удэ

Время (UTC), дата Ветер
(напр.,м/с)
 
Видим.   Явления Облачность Т
(С)
Тd
(С)
f
(%)
Тe
(С)
Тes
(С)
Комфортность P
(гПа)
Po
(гПа)
Тmin
(С)
Tmax
(С)
R
(мм)
R24
(мм)
S
(см)
18 19.05 Ю 1 50 км ясно +2.7 -9.4 40 +2 +2 прохладно 1019.0 956.4
21 19.05 ЮЗ 1 50 км ясно -0.8 -7.0 63 -2 -2 очень
холодно
1019.4 956.1
00 20.05 СЗ 1 50 км ясно +5.2 -6.0 44 +5 +10 по сезону 1017.8 955.9 -0.8
03 20.05 ЮЗ 3 50 км ясно +15.6 -9.6 17 +15 +27 опасность
простуды
1013.6 954.1
06 20.05 ЮЗ 2 50 км 1/0
[Ci fib]
+20.6 -11.2 11 +20 +35 опасность
простуды
1010.1 951.8
09 20.05 СЗ 4 50 км 8/0
[Ci fib]
+21.2 -11.7 10 +20 +24 тепло 1008.8 950.6
12 20.05 СЗ 1 50 км 8/0
[Ci fib]
+19.7 -8.8 14 +20 +21 тепло 1008.4 950.0 +21.6
15 20.05 В 1 50 км 10/0
[Ci fib]
+11.8 -8.1 24 +12 +12 по сезону 1011.0 950.8
18 20.05 В 1 50 км 8/0
[Ci fib]
+6.7 -7.3 36 +7 +7 по сезону 1012.5 951.2
21 20.05 В 2 20 км дым 10/0
[Ac trans Ci fib]
+3.7 -9.2 38 +2 +2 холодно 1012.8 950.8
00 21.05 В 4 50 км 10/0
[Ac trans Ci fib]
+8.6 -9.4 27 +6 +8 по сезону 1011.7 950.8 +3.6
03 21.05 СВ 2 50 км 4/0
[Ac cast Ci sp]
+18.8 -9.5 14 +19 +30 тепло 1007.5 948.9
06 21.05 З 3 50 км 6/0
[Ac trans Ci fib]
+26.2 -7.4 10 +23 +34 комфорт 1002.1 945.2
09 21.05 ЮЗ 2 50 км 10/1 1000 м
[Cb cap Ac trans Ci]
+27.6 -6.8 10 +24 +27 комфорт 999.4 942.9
12 21.05 штиль 0 50 км 10/0
[Ac As Ci fib]
+25.3 -6.0 12 +23 +23 комфорт 998.4 941.6 +28.1
15 21.05 В 1 50 км 8/0
[Ci fib]
+16.5 -3.4 25 +18 +18 тепло 1000.5 942.0
18 21.05 В 2 50 км 3/0
[Ci fib]
+11.0 -4.4 34 +10 +10 тепло 1001.0 941.3
21 21.05 В 2 50 км 10/0
[Ac trans Ci fib]
+8.3 -3.7 42 +7 +7 по сезону 1001.1 940.8
00 22.05 В 2 50 км 6/0
[Ci fib]
+14.2 -4.3 27 +14 +18 тепло 999.1 940.2 +8.1
03 22.05 СЗ 3 50 км 10/0
[Ci fib]
+22.8 -1.7 19 +22 +31 комфорт 996.4 939.3
06 22.05 С 6-11
{12}
50 км 3/0
[Ci fib]
+24.7 +1.0 21 +23 +29 комфорт 995.8 939.1
09 22.05 СЗ 4
{12}
50 км 8/0
[Ci fib]
+25.3 +1.4 21 +24 +28 комфорт 995.7 939.1
12 22.05 СВ 2 50 км 8/5 1000 м
[Cb cap Ci fib]
+23.1 +2.4 26 +23 +23 комфорт 996.4 939.4 +25.4
15 22.05 З 1 50 км 8/0
[Ci fib]
+18.1 +3.5 38 +19 +19 тепло 1000.2 942.1
18 22.05 Ю 1 50 км 8/0
[Ci fib]
+14.6 +3.8 48 +15 +15 тепло 1000.9 942.0
21 22.05 ЮЗ 1 50 км 10/8 1000 м
[Cb cap Ci sp]
+11.2 +4.0 61 +11 +11 тепло 1001.5 941.9
00 23.05 В 2 50 км 9/9 1000 м
[Sc]
+15.1 +3.4 45 +15 +16 тепло 998.4 939.8 +11.2
03 23.05 З 2 50 км 10/10 1000 м
[Cb cap]
+23.1 +3.1 27 +23 +23 комфорт 992.7 935.9
06 23.05 З 3 50 км 10/6 1000 м
[Cb cap Ac trans Ci fib]
+26.9 +3.8 23 +26 +28 жарко 989.7 933.7
09 23.05 СЗ 8-16
{16}
50 км 8/5 1000 м
[Cb cap Ac trans Ci fib]
+19.6 +1.9 31 +19 +20 тепло 997.2 939.5
12 23.05 СЗ 5
{16}
50 км 10/9 600 м
[Cb cap Ac trans]
+13.8 +2.5 46 +12 +12 прохладно 1004.7 945.4 +27.7
15 23.05 З 4
{10}
50 км {ливн. осадки} 10/8 600 м
[Cb cap Ac trans]
+10.8 +2.8 58 +9 +9 прохладно 1009.6 949.4
18 23.05 С 4 50 км {ливн. осадки} 8/5 600 м
[Cb cap Ac trans]
+9.2 +1.4 58 +7 +7 по сезону 1011.6 951.0
21 23.05 С 4 50 км 10/4 1000 м
[Cb cap Ac trans]
+8.0 +0.7 60 +5 +5 по сезону 1013.5 952.5
00 24.05 С 4 50 км 10/3 1000 м
[Cb cap As op]
+9.3 +1.3 57 +7 +7 по сезону 1014.2 953.4 +8.0
03 24.05 СЗ 3 50 км 10/5 1000 м
[Cu hum Ac trans Ci fib]
+12.1 +0.5 45 +11 +14 по сезону 1013.9 953.7
06 24.05 С 4 50 км 10/8 1000 м
[Cu med, cong Ci sp]
+15.5 -2.2 30 +15 +16 прохладно 1011.3 952.0
09 24.05 СВ 4
{11}
50 км 10/3 1000 м
[Cu hum Ac trans Ci sp]
+16.5 -6.5 20 +16 +18 по сезону 1010.5 951.4
12 24.05 СВ 4 50 км 10/0
[Ac trans Ci fib]
+15.3 -6.0 22 +15 +15 по сезону 1011.0 951.6 +17.4
15 24.05 СЗ 1 50 км 8/0
[Ac trans Ci fib]
+10.9 -2.7 38 +11 +11 по сезону 1013.3 952.9
18 24.05 В 1 50 км 8/0
[Ci fib]
+8.1 -3.3 44 +8 +8 по сезону 1015.8 954.6
21 24.05 ЮЗ 2 50 км 10/0
[Ci sp]
+3.7 -1.1 71 +1 +1 холодно 1018.2 956.0
00 25.05 СЗ 1 50 км 9/0
[Cs]
+9.4 +0.5 54 +9 +14 по сезону 1019.2 958.1 +3.5
03 25.05 С 3
{10}
50 км 10/8 1000 м
[Cu med, cong Ci fib]
+15.3 -3.7 27 +15 +17 тепло 1018.1 958.3
06 25.05 СЗ 5
{12}
50 км 9/3 1000 м
[Cu hum Ci fib]
+17.6 -9.3 15 +17 +22 по сезону 1016.8 957.5
09 25.05 С 6-11
{12}
50 км 8/3 1000 м
[Cu hum Ci fib]
+17.6 -9.9 14 +17 +19 по сезону 1017.1 957.8
12 25.05 С 3
{11}
50 км 1/0
[Ci fib]
+15.6 -8.5 18 +15 +16 по сезону 1019.0 959.2 +17.9
15 25.05 С 2 50 км 4/0
[Ci fib]
+10.9 -4.9 33 +10 +10 по сезону 1022.4 961.4
18 25.05 ЮЗ 1 50 км ясно +5.6 -3.2 53 +5 +5 по сезону 1024.9 962.6
21 25.05 ЮЗ 1 50 км 6/0
[Ac trans]
+2.6 -3.9 62 +1 +1 холодно 1026.9 963.9
00 26.05 СЗ 1 50 км 3/0
[Ac trans]
+6.6 -2.0 54 +6 +11 по сезону 1026.9 964.7 +1.8
03 26.05 ЮЗ 2 50 км 3/3 1000 м
[Cu med, cong]
+16.8 -4.9 22 +17 +27 тепло 1023.2 963.3
06 26.05 З 3
{10}
50 км 6/6 1000 м
[Cu med, cong]
+19.5 -8.2 15 +19 +25 тепло 1020.2 961.0
09 26.05 З 3 50 км 3/3 1000 м
[Cu hum]
+21.3 -8.2 13 +20 +24 тепло 1017.2 958.5
12 26.05 ЮЗ 1 50 км 9/0
[Ci fib]
+19.2 -8.4 15 +20 +20 тепло 1017.0 958.0 +21.5
15 26.05 В 3 50 км 6/0
[Ci fib]
+13.4 -6.7 24 +13 +13 по сезону 1018.3 958.1

 

Местоположение метеостанции Улан-Удэ (Бурятия, Россия): широта 51.83 долгота 107.60 высота над уровнем моря 515 м.

В архиве по умолчанию представлена погода в Улан-Удэ за последнюю неделю. Архивные данные за месяц целиком и за предыдущие месяцы, начиная с января 2011 года, Вы можете получить, выбрав интересующий диапазон дат из раскрывающегося списка и нажав кнопку "Ввод!".


*Определитесь, кто Вы:
робот инопланетянин человек

Внимание! Время в таблицах - всемирное. Для получения местного времени необходимо прибавить поправку, которая равна 8 ч.

Смотрите также архив погоды в соседних городах и на ближайших метеорологических станциях:

Погода в Улан-Удэ АМС (Бурятия, Россия) (10 км)
Погода в Иволгинске (Бурятия, Россия) (29 км)
Погода в Новой Курбе (Бурятия, Россия) (67 км)
Погода в Кабанске (Бурятия, Россия) (73 км)
Погода в Сухой (Бурятия, Россия) (87 км)
Погода в Мухоршибири (Бурятия, Россия) (90 км)
Погода в Петровском Заводе (Забайкальский край, Россия) (100 км)
Погода в Новоселенгинске (Бурятия, Россия) (107 км)
Погода в Бабушкине (Бурятия, Россия) (125 км)
Погода в Горячинске (Бурятия, Россия) (134 км)

Пояснения к столбцам:

Ветер - указаны скорость ветра в м/с - средняя за 10 мин, порывы в срок и между сроками (в фигурных скобках) и направление, откуда дует ветер: С - северный, СВ - северо-восточный, В - восточный, ЮВ - юго-восточный, Ю - южный, ЮЗ - юго-западный, З - западный, СЗ - северо-западный.
Видимость - горизонтальная дальность видимости в метрах или километрах. При видимости от 1 до 10 км при отсутствии осадков обычно наблюдается дымка, при ухудшении видимости до 1 км и менее - туман. В сухую погоду видимость может ухудшаться дымом, пылью или мглою.
Явления - указаны атмосферные явления, наблюдавшиеся в срок или в последний час перед сроком; фигурными скобками обозначены явления, наблюдавшиеся между сроками (за 1-3 часа до срока); квадратными скобками обозначены град или гололедные отложения с указанием их диаметра в мм.
Облачность - указаны через наклонную черту общая и нижняя облачность в баллах и высота нижней границы облаков в метрах; квадратными скобками обозначены формы облаков: Ci - перистые, Cs - перисто-слоистые, Cc - перисто-кучевые, Ac - высококучевые, As - высокослоистые, Sc - слоисто-кучевые, Ns - слоисто-дождевые, Cu - кучевые, Cb - кучево-дождевые. Подробнее классификацию облаков см. в Атласе облаков (PDF).
T - Температура воздуха - температура, измеренная на высоте 2 м над землей.
Td - Температура точки росы - температура, при понижении до которой содержащийся в воздухе водяной пар достигнет насыщения.
f - Относительная влажность воздуха - влажноcть воздуха, измеренная на высоте 2 м над землей.
Te - Эффективная температура - температура, которую ощущает одетый по сезону человек в тени. Характеристика душности погоды. При расчете учитывается влияние влажности воздуха и скорости ветра на теплоощущения человека.
Tes - Эффективная температура на солнце - температура, которую ощущает человек, с поправкой на солнечный нагрев. Характеристика знойности погоды. Зависит от высоты солнца над горизонтом, облачности и скорости ветра. Ночью, в пасмурную погоду, а также при ветре 12 м/с и более поправка равна нулю.
P - Атмосферное давление - приведенное к уровню моря атмосферное давление.
Po - Атмосферное давление - измеренное на уровне метеостанции атмосферное давление.
Tmin - Минимальная температура - минимум температуры воздуха на высоте 2 м над землей.
Tmax - Максимальная температура - максимум температуры воздуха на высоте 2 м над землей.
R - Количество осадков - Количество выпавших осадков за период времени, мм. При наведении курсора мыши на число - период времени, за который выпало указанное количество осадков.
R24 - Количество осадков - Количество выпавших осадков за 24 часа, мм.
S - Снежный покров - Высота снежного покрова, см. При наведении курсора мыши на число - состояние снежного покрова и степень покрытия местности в баллах.